TimeEST,TemperatureF,Dew PointF,Humidity,Sea Level PressureIn,VisibilityMPH,Wind Direction,Wind SpeedMPH,Gust SpeedMPH,PrecipitationIn,Events,Conditions,WindDirDegrees,DateUTC
12:15 AM,42.8,24.8,49,29.88,10.0,East,9.2,-,N/A,,Overcast,90,2013-03-05 05:15:00
12:35 AM,42.8,24.8,49,29.87,10.0,East,10.4,-,N/A,,Overcast,90,2013-03-05 05:35:00
12:55 AM,42.8,24.8,49,29.86,10.0,East,9.2,-,N/A,,Overcast,90,2013-03-05 05:55:00
1:15 AM,42.8,26.6,53,29.86,10.0,East,5.8,-,N/A,,Overcast,100,2013-03-05 06:15:00
2:55 AM,42.8,30.2,61,29.84,10.0,SE,6.9,-,N/A,,Overcast,140,2013-03-05 07:55:00
3:15 AM,41.0,33.8,76,29.84,10.0,SE,5.8,-,N/A,,Overcast,140,2013-03-05 08:15:00
3:35 AM,41.0,33.8,76,29.84,10.0,SE,5.8,-,N/A,,Overcast,130,2013-03-05 08:35:00
3:55 AM,41.0,33.8,76,29.83,10.0,ESE,10.4,-,N/A,,Mostly Cloudy,120,2013-03-05 08:55:00
4:15 AM,41.0,35.6,81,29.83,10.0,SE,8.1,-,N/A,,Mostly Cloudy,130,2013-03-05 09:15:00
4:35 AM,39.2,35.6,87,29.82,10.0,ESE,10.4,-,N/A,,Overcast,120,2013-03-05 09:35:00
4:55 AM,41.0,35.6,81,29.81,10.0,ESE,9.2,-,N/A,,Overcast,120,2013-03-05 09:55:00
5:15 AM,41.0,37.4,87,29.81,10.0,ESE,8.1,-,N/A,,Overcast,110,2013-03-05 10:15:00
5:35 AM,41.0,37.4,87,29.80,10.0,ESE,6.9,-,N/A,,Overcast,120,2013-03-05 10:35:00
5:55 AM,41.0,37.4,87,29.80,10.0,East,6.9,-,N/A,,Overcast,100,2013-03-05 10:55:00
6:15 AM,41.0,37.4,87,29.80,10.0,East,8.1,-,N/A,,Overcast,100,2013-03-05 11:15:00
6:35 AM,41.0,37.4,87,29.80,10.0,East,5.8,-,N/A,,Overcast,90,2013-03-05 11:35:00
6:55 AM,41.0,37.4,87,29.80,10.0,East,5.8,-,N/A,,Overcast,90,2013-03-05 11:55:00
7:15 AM,42.8,37.4,81,29.80,10.0,ESE,5.8,-,N/A,,Overcast,110,2013-03-05 12:15:00
7:35 AM,42.8,39.2,87,29.80,10.0,East,6.9,-,N/A,,Overcast,100,2013-03-05 12:35:00
8:35 AM,42.8,39.2,87,29.79,10.0,East,5.8,-,N/A,,Overcast,100,2013-03-05 13:35:00
8:55 AM,42.8,39.2,87,29.79,9.0,ESE,6.9,-,N/A,,Overcast,110,2013-03-05 13:55:00
9:15 AM,44.6,39.2,81,29.78,9.0,ESE,8.1,-,N/A,,Overcast,110,2013-03-05 14:15:00
9:35 AM,44.6,39.2,81,29.78,9.0,ESE,6.9,-,N/A,,Overcast,120,2013-03-05 14:35:00
9:55 AM,44.6,41.0,87,29.76,9.0,ESE,5.8,-,N/A,,Overcast,110,2013-03-05 14:55:00
10:15 AM,44.6,41.0,87,29.76,9.0,ESE,5.8,-,N/A,,Overcast,120,2013-03-05 15:15:00
10:35 AM,44.6,41.0,87,29.75,9.0,SE,3.5,-,N/A,,Overcast,130,2013-03-05 15:35:00
10:55 AM,44.6,41.0,87,29.74,9.0,ESE,3.5,-,N/A,,Overcast,110,2013-03-05 15:55:00
11:35 AM,46.4,42.8,87,29.73,8.0,Calm,Calm,-,N/A,,Overcast,0,2013-03-05 16:35:00
11:55 AM,46.4,42.8,87,29.72,9.0,Calm,Calm,-,N/A,,Overcast,0,2013-03-05 16:55:00
12:15 PM,46.4,42.8,87,29.72,7.0,WNW,3.5,-,N/A,,Overcast,290,2013-03-05 17:15:00
12:35 PM,46.4,42.8,87,29.72,5.0,NW,4.6,-,N/A,,Overcast,310,2013-03-05 17:35:00
12:55 PM,46.4,42.8,87,29.71,4.0,NW,6.9,-,N/A,,Overcast,310,2013-03-05 17:55:00
1:35 PM,44.6,41.0,87,29.69,7.0,WNW,12.7,-,0.01,,Overcast,300,2013-03-05 18:35:00
1:55 PM,42.8,39.2,87,29.70,8.0,WNW,18.4,-,0.01,,Overcast,290,2013-03-05 18:55:00
2:15 PM,41.0,35.6,81,29.70,7.0,West,20.7,27.6,N/A,,Overcast,280,2013-03-05 19:15:00
2:35 PM,39.2,35.6,87,29.72,7.0,WNW,25.3,31.1,0.01,,Overcast,300,2013-03-05 19:35:00
2:55 PM,35.6,32.0,87,29.74,3.0,WNW,21.9,26.5,0.03,,Overcast,290,2013-03-05 19:55:00
3:15 PM,33.8,28.4,81,29.76,1.2,WNW,19.6,29.9,0.02,,Overcast,290,2013-03-05 20:15:00
3:55 PM,33.8,30.2,87,29.77,1.2,WNW,18.4,23.0,0.05,,Overcast,290,2013-03-05 20:55:00
4:15 PM,33.8,30.2,87,29.78,1.5,WNW,24.2,34.5,0.01,,Overcast,290,2013-03-05 21:15:00
4:35 PM,33.8,30.2,87,29.79,1.0,West,19.6,24.2,0.01,,Overcast,280,2013-03-05 21:35:00
4:55 PM,33.8,30.2,87,29.80,1.0,WNW,19.6,28.8,0.01,,Overcast,290,2013-03-05 21:55:00
5:15 PM,33.8,30.2,87,29.82,1.8,West,21.9,27.6,N/A,,Overcast,280,2013-03-05 22:15:00
5:55 PM,33.8,28.4,81,29.84,9.0,WNW,23.0,34.5,N/A,,Overcast,290,2013-03-05 22:55:00
6:15 PM,33.8,28.4,81,29.86,8.0,WNW,24.2,36.8,N/A,,Overcast,290,2013-03-05 23:15:00
6:35 PM,33.8,28.4,81,29.86,4.0,WNW,24.2,38.0,N/A,,Overcast,290,2013-03-05 23:35:00
6:55 PM,33.8,28.4,81,29.87,3.0,WNW,19.6,31.1,N/A,,Overcast,290,2013-03-05 23:55:00
7:15 PM,33.8,28.4,81,29.88,7.0,West,25.3,33.4,N/A,,Overcast,280,2013-03-06 00:15:00
7:35 PM,33.8,26.6,75,29.89,10.0,West,26.5,41.4,N/A,,Overcast,280,2013-03-06 00:35:00
7:55 PM,32.0,26.6,80,29.89,7.0,WNW,24.2,31.1,N/A,,Overcast,290,2013-03-06 00:55:00
8:15 PM,32.0,26.6,80,29.90,8.0,West,19.6,26.5,N/A,,Overcast,280,2013-03-06 01:15:00
8:35 PM,32.0,26.6,80,29.90,8.0,West,19.6,35.7,N/A,,Overcast,280,2013-03-06 01:35:00
8:55 PM,32.0,24.8,75,29.91,8.0,West,24.2,38.0,N/A,,Overcast,280,2013-03-06 01:55:00
9:15 PM,30.2,24.8,80,29.90,8.0,WNW,25.3,28.8,N/A,,Overcast,290,2013-03-06 02:15:00
9:35 PM,30.2,24.8,80,29.90,7.0,West,17.3,31.1,N/A,,Overcast,280,2013-03-06 02:35:00
9:55 PM,30.2,24.8,80,29.90,8.0,West,21.9,28.8,N/A,,Overcast,280,2013-03-06 02:55:00
10:15 PM,30.2,24.8,80,29.90,7.0,West,16.1,-,N/A,,Mostly Cloudy,270,2013-03-06 03:15:00
10:35 PM,30.2,24.8,80,29.90,7.0,West,20.7,25.3,N/A,,Overcast,270,2013-03-06 03:35:00
10:55 PM,30.2,24.8,80,29.90,7.0,West,20.7,27.6,N/A,,Overcast,270,2013-03-06 03:55:00
11:15 PM,30.2,24.8,80,29.90,9.0,West,21.9,29.9,N/A,,Overcast,270,2013-03-06 04:15:00
11:35 PM,30.2,24.8,80,29.89,8.0,West,20.7,28.8,N/A,,Overcast,280,2013-03-06 04:35:00
11:55 PM,30.2,24.8,80,29.89,10.0,West,26.5,32.2,N/A,,Overcast,280,2013-03-06 04:55:00